Regional Weather Roundup
Issued by NWS

Home | Current Version | Previous Version | Text Only | Print | Product List | Glossary On
Versions: 1 2 3 4 5 6 7 8 9 10 11 12 13 14 15 16 17 18 19 20 21 22 23 24 25 26 27 28 29 30 31 32 33 34 35 36 37 38 39 40 41 42 43 44 45 46 47 48 49 50
000
ASUS43 KFSD 260810
RWRSD

WEATHER ROUNDUP FOR SOUTH DAKOTA
NATIONAL WEATHER SERVICE SIOUX FALLS SD
200 AM CST FRI DEC 26 2014

NOTE: "FAIR" INDICATES FEW OR NO CLOUDS BELOW 12,000 FEET WITH NO
SIGNIFICANT WEATHER AND/OR OBSTRUCTIONS TO VISIBILITY.


SDZ001>005-009-010-012>017-260900-
NORTHWEST AND NORTH CENTRAL SOUTH DAKOTA

CITY           SKY/WX    TMP DP  RH WIND       PRES   REMARKS
BUFFALO          N/A     20  15  81 NW14      29.94F WCI   7
FAITH            N/A     22  15  75 N15       30.01R WCI   9
MOBRIDGE       CLOUDY    26  21  81 N12       30.00R WCI  16
$$

SDZ012>016-024>037-041>051-057-063-072>074-260900-
SOUTHWEST AND SOUTH CENTRAL SOUTH DAKOTA

CITY           SKY/WX    TMP DP  RH WIND       PRES   REMARKS
RAPID CTY ARPT CLOUDY    21  17  84 N16       29.99R WCI   7
PIERRE         CLOUDY    26  21  81 N15       30.00R WCI  14
CUSTER         CLOUDY    13   9  84 W5        29.84S WCI   5
ELLSWORTH AFB  CLOUDY    21  18  86 N16       29.98  WCI   7
PHILIP         CLOUDY    25  19  78 N10       30.03S WCI  15
PINE RIDGE     CLOUDY    21  17  84 N10       29.98R WCI  10
SPEARFISH      CLOUDY    19  16  86 NW10      29.98S WCI   8
WINNER         CLOUDY    26  22  84 N16       29.96R WCI  14
$$

SDZ004>011-016>023-039-040-260900-
NORTHEAST SOUTH DAKOTA

CITY           SKY/WX    TMP DP  RH WIND       PRES   REMARKS
ABERDEEN       CLOUDY    26  23  88 N13       30.00R WCI  15
WATERTOWN      CLOUDY    24  21  88 N13       29.91R WCI  12
SISSETON         N/A     25  24  96 N16       29.96R WCI  12
$$

SDZ017-020-022-023-036>040-048>070-260900-
SOUTHEAST SOUTH DAKOTA

CITY           SKY/WX    TMP DP  RH WIND       PRES   REMARKS
SIOUX FALLS    CLOUDY    29  26  89 N12       29.88R WCI  19
HURON          LGT SNOW  26  23  88 N14       29.96R FOG     WCI  14
CHAMBERLAIN    CLOUDY    25  22  87 N14       29.96S WCI  13
MITCHELL       CLOUDY    27  24  89 N16       29.95R WCI  15
YANKTON        CLOUDY    28  25  86 NW15      29.90R WCI  17
$$

ABBREVIATIONS USED IN REMARKS
   TC - TEMPERATURE IN CELSIUS
  WCI - WIND CHILL INDEX
   HX - HEAT INDEX
  VSB - VISIBILITY



USA.gov is the U.S. government's official web portal to all federal, state and local government web resources and services.